Weather reports worldwide

Advertisment
Threave, United Kingdom (99090): temperature & dewpoint: 17.01.2019 02:00:00 - 23.01.2019 02:00:00 (GMT)Threave, United Kingdom (99090): temperature -20cm & temperature -100cm: 17.01.2019 02:00:00 - 23.01.2019 02:00:00 (GMT)Threave, United Kingdom (99090): precipitation: 17.01.2019 02:00:00 - 23.01.2019 02:00:00 (GMT)
Date & Time tt [°C] td [°C] tt -20cm [°C] tt -100cm [°C] rr [mm]
23.01.2019 02:00:00 - - - - -
23.01.2019 01:00:00 -4,0 -4,5 - - 0,0
23.01.2019 00:00:00 -3,5 -3,9 - - 0,0
22.01.2019 23:00:00 -2,8 -3,2 - - 0,0
22.01.2019 22:00:00 -2,2 -2,5 - - 0,0
22.01.2019 21:00:00 -2,6 -3,0 - - 0,0
22.01.2019 20:00:00 -2,0 -2,5 - - 0,0
22.01.2019 19:00:00 -0,7 -1,0 - - 0,0
22.01.2019 18:00:00 -0,3 -0,8 - - 0,0
22.01.2019 17:00:00 0,3 -0,2 - - 0,0
22.01.2019 16:00:00 0,9 -0,5 - - 0,0
22.01.2019 15:00:00 1,7 0,5 - - 0,4
22.01.2019 14:00:00 0,8 0,3 - - 0,6
22.01.2019 13:00:00 2,1 -0,2 - - 0,0
22.01.2019 12:00:00 2,9 0,2 - - 0,0
22.01.2019 11:00:00 2,2 0,6 - - 0,2
22.01.2019 10:00:00 1,1 0,3 - - 0,0
22.01.2019 09:00:00 0,9 0,0 4,7 6,7 0,0
22.01.2019 08:00:00 0,4 -0,3 - - 0,0
22.01.2019 07:00:00 0,7 -0,5 - - 0,0
22.01.2019 06:00:00 1,6 0,1 - - 0,0
22.01.2019 05:00:00 1,4 0,6 - - 0,0
22.01.2019 04:00:00 1,6 0,8 - - 0,0
22.01.2019 03:00:00 1,9 0,7 - - 0,2
22.01.2019 02:00:00 1,5 0,6 - - 0,0
22.01.2019 01:00:00 1,6 0,6 - - 0,0
22.01.2019 00:00:00 2,5 1,1 - - 0,2
21.01.2019 23:00:00 3,2 2,2 - - 0,4
21.01.2019 22:00:00 3,3 1,8 - - 0,2
21.01.2019 21:00:00 4,9 3,8 - - 2,2
21.01.2019 20:00:00 5,5 4,4 - - 3,6
21.01.2019 19:00:00 5,7 4,4 - - 2,4
21.01.2019 18:00:00 5,6 3,8 - - 0,8
21.01.2019 17:00:00 5,6 2,0 - - 0,0
21.01.2019 16:00:00 5,4 0,7 - - 0,0
21.01.2019 15:00:00 5,5 0,5 - - 0,0
21.01.2019 14:00:00 5,4 1,7 - - 0,0
21.01.2019 13:00:00 5,1 1,7 - - 0,2
21.01.2019 12:00:00 3,4 3,3 - - 0,0
21.01.2019 11:00:00 -0,6 -0,8 - - 0,0
21.01.2019 10:00:00 -2,1 -2,3 - - 0,0
21.01.2019 09:00:00 -2,7 -3,0 4,9 6,7 0,0
21.01.2019 08:00:00 -4,1 -4,7 - - 0,0
21.01.2019 07:00:00 -4,1 -4,6 - - 0,0
21.01.2019 06:00:00 -3,4 -3,9 - - 0,0
21.01.2019 05:00:00 -2,9 -3,3 - - 0,0
21.01.2019 04:00:00 -2,6 -2,9 - - 0,0
21.01.2019 03:00:00 -2,1 -2,4 - - 0,0
21.01.2019 02:00:00 -2,3 -2,7 - - 0,0
21.01.2019 01:00:00 -1,9 -2,4 - - 0,0
21.01.2019 00:00:00 -1,0 -1,4 - - 0,0
20.01.2019 23:00:00 -1,2 -1,7 - - 0,0
20.01.2019 22:00:00 -0,6 -1,5 - - 0,0
20.01.2019 21:00:00 -0,2 -1,1 - - 0,0
20.01.2019 20:00:00 0,6 -0,9 - - 0,0
20.01.2019 19:00:00 1,8 0,3 - - 0,0
20.01.2019 18:00:00 3,2 1,3 - - 0,0
20.01.2019 17:00:00 4,2 1,8 - - 0,0
20.01.2019 16:00:00 4,8 2,9 - - 0,0
20.01.2019 15:00:00 5,2 4,1 - - 0,0
20.01.2019 14:00:00 5,7 4,1 - - 0,0
20.01.2019 13:00:00 6,1 3,7 - - 0,0
20.01.2019 12:00:00 4,4 3,5 - - 0,0
20.01.2019 11:00:00 2,8 2,5 - - 0,0
20.01.2019 10:00:00 1,5 1,2 - - 0,0
20.01.2019 09:00:00 1,8 1,5 5,0 6,9 0,0
20.01.2019 08:00:00 1,8 1,4 - - 0,0
20.01.2019 07:00:00 2,1 1,7 - - 0,0
20.01.2019 06:00:00 2,0 1,5 - - 0,0
20.01.2019 05:00:00 2,1 1,6 - - 0,0
20.01.2019 04:00:00 2,1 1,6 - - 0,0
20.01.2019 03:00:00 2,2 1,7 - - 0,0
20.01.2019 02:00:00 2,2 1,6 - - 0,0
20.01.2019 01:00:00 2,4 1,8 - - 0,0
20.01.2019 00:00:00 2,3 1,6 - - 0,0
19.01.2019 23:00:00 2,5 1,7 - - 0,0
19.01.2019 22:00:00 2,8 1,9 - - 0,0
19.01.2019 21:00:00 2,9 2,1 - - 0,0
19.01.2019 20:00:00 2,9 2,1 - - 0,0
19.01.2019 19:00:00 3,0 2,0 - - 0,0
19.01.2019 18:00:00 3,1 2,1 - - 0,0
19.01.2019 17:00:00 3,5 2,1 - - 0,0
19.01.2019 16:00:00 3,8 2,2 - - 0,0
19.01.2019 15:00:00 3,9 2,4 - - 0,0
19.01.2019 14:00:00 3,6 2,4 - - 0,0
19.01.2019 13:00:00 3,3 2,5 - - 0,0
19.01.2019 12:00:00 2,4 2,0 - - 0,0
19.01.2019 11:00:00 1,2 1,0 - - 0,0
19.01.2019 10:00:00 0,2 -0,1 - - 0,0
19.01.2019 09:00:00 -0,4 -1,0 5,0 7,0 0,0
19.01.2019 08:00:00 0,3 -0,4 - - 0,0
19.01.2019 07:00:00 1,0 0,2 - - 0,0
19.01.2019 06:00:00 1,5 0,8 - - 0,0
19.01.2019 05:00:00 1,6 1,0 - - 0,0
19.01.2019 04:00:00 1,7 1,1 - - 0,2
19.01.2019 03:00:00 2,0 1,3 - - 0,0
19.01.2019 02:00:00 2,1 1,4 - - 0,0
19.01.2019 01:00:00 2,3 1,5 - - 0,0
19.01.2019 00:00:00 3,0 1,7 - - 0,0
18.01.2019 23:00:00 3,3 1,5 - - 0,0
18.01.2019 22:00:00 3,4 1,8 - - 0,0
18.01.2019 21:00:00 3,4 2,0 - - 0,0
18.01.2019 20:00:00 3,3 2,2 - - 0,0
18.01.2019 19:00:00 3,0 2,6 - - 2,0
18.01.2019 18:00:00 0,9 0,6 - - 0,8
18.01.2019 17:00:00 0,4 -0,1 - - 0,0
18.01.2019 16:00:00 0,5 -0,4 - - 0,8
18.01.2019 15:00:00 1,8 0,9 - - 1,4
18.01.2019 14:00:00 2,5 0,5 - - 0,2
18.01.2019 13:00:00 3,4 -1,2 - - 0,0
18.01.2019 12:00:00 3,3 -2,3 - - 0,0
18.01.2019 11:00:00 3,1 -1,9 - - 0,0
18.01.2019 10:00:00 0,2 -3,2 - - 0,0
18.01.2019 09:00:00 0,9 -2,7 5,2 7,2 0,0
18.01.2019 08:00:00 1,6 -2,5 - - 0,0
18.01.2019 07:00:00 0,1 -2,3 - - 0,0
18.01.2019 06:00:00 0,2 -2,0 - - 0,0
18.01.2019 05:00:00 -2,0 -2,8 - - 0,0
18.01.2019 04:00:00 -1,8 -2,7 - - 0,0
18.01.2019 03:00:00 -2,1 -3,0 - - 0,0
18.01.2019 02:00:00 -3,2 -4,0 - - 0,0
18.01.2019 01:00:00 -3,0 -3,8 - - 0,0
18.01.2019 00:00:00 -2,4 -3,4 - - 0,0
17.01.2019 23:00:00 -2,7 -3,6 - - 0,0
17.01.2019 22:00:00 -2,2 -3,5 - - 0,0
17.01.2019 21:00:00 -1,6 -2,9 - - 0,0
17.01.2019 20:00:00 -0,8 -2,9 - - 0,0
17.01.2019 19:00:00 -0,6 -2,9 - - 0,0
17.01.2019 18:00:00 -0,9 -3,4 - - 0,0
17.01.2019 17:00:00 0,7 -3,0 - - 0,0
17.01.2019 16:00:00 1,7 -3,3 - - 0,0
17.01.2019 15:00:00 3,2 -3,3 - - 0,0
17.01.2019 14:00:00 4,0 -3,3 - - 0,0
17.01.2019 13:00:00 3,7 -2,7 - - 0,0
17.01.2019 12:00:00 3,1 -2,4 - - 0,0
17.01.2019 11:00:00 2,2 -2,3 - - 0,0
17.01.2019 10:00:00 0,9 -2,8 - - 0,0
17.01.2019 09:00:00 0,8 -2,9 6,2 7,2 0,0
17.01.2019 08:00:00 0,0 -3,1 - - 0,0
17.01.2019 07:00:00 -2,0 -4,8 - - 0,0
17.01.2019 06:00:00 -0,8 -3,6 - - 0,0
17.01.2019 05:00:00 -1,2 -4,2 - - 0,0
17.01.2019 04:00:00 -1,0 -5,6 - - 0,0
17.01.2019 03:00:00 0,0 -4,5 - - 0,0
17.01.2019 02:00:00 1,4 -2,3 - - 0,0

tt = temperature
td = dewpoint
tt -20cm = temperature -20cm
tt -100cm = temperature -100cm
rr = precipitation

Next stations